TimePDT,TemperatureF,Dew PointF,Humidity,Sea Level PressureIn,VisibilityMPH,Wind Direction,Wind SpeedMPH,Gust SpeedMPH,PrecipitationIn,Events,Conditions,WindDirDegrees,DateUTC
12:56 AM,63.9,20.1,19,30.04,10.0,NNE,10.4,-,N/A,,Clear,30,2013-04-24 07:56:00
1:56 AM,63.9,25.2,23,30.02,10.0,NNE,13.8,-,N/A,,Clear,20,2013-04-24 08:56:00
2:56 AM,63.0,26.1,25,30.01,10.0,Variable,6.9,-,N/A,,Clear,0,2013-04-24 09:56:00
3:56 AM,63.0,23.0,22,29.98,10.0,NE,15.0,-,N/A,,Clear,40,2013-04-24 10:56:00
4:56 AM,61.9,22.1,22,29.97,10.0,North,8.1,-,N/A,,Clear,10,2013-04-24 11:56:00
5:56 AM,61.9,20.1,20,29.96,10.0,Variable,5.8,-,N/A,,Clear,0,2013-04-24 12:56:00
6:56 AM,61.0,23.0,23,29.96,10.0,Variable,6.9,-,N/A,,Clear,0,2013-04-24 13:56:00
7:56 AM,61.9,23.0,23,29.98,10.0,Variable,5.8,-,N/A,,Clear,0,2013-04-24 14:56:00
8:56 AM,66.9,20.1,17,29.97,10.0,Variable,6.9,-,N/A,,Clear,0,2013-04-24 15:56:00
9:56 AM,70.9,20.1,15,29.97,10.0,NE,6.9,-,N/A,,Clear,50,2013-04-24 16:56:00
10:56 AM,73.9,19.0,13,29.97,10.0,NE,10.4,-,N/A,,Clear,40,2013-04-24 17:56:00
11:56 AM,75.9,17.1,11,29.97,10.0,NNE,9.2,-,N/A,,Clear,30,2013-04-24 18:56:00
12:56 PM,79.9,19.0,10,29.96,10.0,NNE,8.1,-,N/A,,Clear,20,2013-04-24 19:56:00
1:56 PM,81.0,19.0,10,29.94,10.0,NNE,8.1,-,N/A,,Clear,30,2013-04-24 20:56:00
2:56 PM,81.9,21.0,11,29.92,10.0,Variable,4.6,-,N/A,,Clear,0,2013-04-24 21:56:00
3:56 PM,81.0,28.0,14,29.89,10.0,NW,13.8,-,N/A,,Clear,320,2013-04-24 22:56:00
4:56 PM,79.9,27.1,14,29.88,10.0,NNW,8.1,-,N/A,,Clear,330,2013-04-24 23:56:00
5:56 PM,79.9,32.0,18,29.87,10.0,NW,8.1,-,N/A,,Clear,320,2013-04-25 00:56:00
6:56 PM,82.9,23.0,11,29.86,10.0,North,5.8,-,N/A,,Clear,360,2013-04-25 01:56:00
7:56 PM,79.0,24.1,13,29.87,10.0,NNE,6.9,-,N/A,,Clear,30,2013-04-25 02:56:00
8:56 PM,77.0,22.1,13,29.88,10.0,NNE,6.9,-,N/A,,Clear,30,2013-04-25 03:56:00
9:56 PM,75.9,22.1,13,29.88,10.0,Variable,5.8,-,N/A,,Clear,0,2013-04-25 04:56:00
10:48 PM,53.6,42.8,67,29.92,7.0,SE,9.2,-,N/A,,Clear,130,2013-04-25 05:48:00
10:56 PM,52.9,43.0,69,29.93,7.0,SE,8.1,-,N/A,,Clear,130,2013-04-25 05:56:00
11:56 PM,50.9,45.0,80,29.93,7.0,SE,4.6,-,N/A,,Clear,140,2013-04-25 06:56:00